{"data":{"norad_id":56107,"epoch":"2026-09-19T22:12:58.966272Z","epoch_age_seconds":158667,"freshness":"FRESH","line1":"1 56107U 23046Q   26262.92568248  .00000277  00000+0  19580-4 0  9998","line2":"2 56107  43.0037 144.9275 0001254 264.0891  95.9817 15.27577627191731","mean_motion":15.27577627,"eccentricity":0.0001254,"inclination_deg":43.0037,"raan_deg":144.9275,"arg_perigee_deg":264.0891,"mean_anomaly_deg":95.9817,"bstar":1.958e-5,"rev_number":19173,"period_min":94.266895151378,"perigee_km":482.19580803704,"apogee_km":483.91659529202,"semimajor_km":6861.1932016645,"source":"CELESTRAK","updated_at":"2026-09-21T09:00:33.364352Z"}}